Regional Weather Roundup
Issued by NWS Kansas City/Pleasant Hill, MO

Home | Current Version | Previous Version | Graphics & Text | Print | Product List | Glossary Off
Versions: 1 2 3 4 5 6 7 8 9 10 11 12 13 14 15 16 17 18 19 20 21 22 23 24 25 26 27 28 29 30 31 32 33 34 35 36 37 38 39 40 41 42 43 44 45 46 47 48 49 50

000
ASUS43 KEAX 241310
RWREAX

WEATHER ROUNDUP FOR EASTERN KANSAS AND NORTHWEST MISSOURI
NATIONAL WEATHER SERVICE KANSAS CITY/PLEASANT HILL MO
800 AM CDT SUN JUL 24 2016

KSZ040-057-103>105-MOZ028-029-037-043-241400-
...KANSAS CITY METROPOLITAN AREA...

CITY           SKY/WX    TMP DP  RH WIND       PRES   REMARKS
K.C. INTL      CLOUDY    80  72  76 SW10      29.91R
K.C. DOWNTOWN  CLOUDY    85  70  60 SW9       29.89R
LEES SUMMIT    CLOUDY    83  72  69 SW15      29.92S
OLATHE - IXD   MOSUNNY   81  72  74 SW10      29.93S
OLATHE - OJC   CLOUDY    79  71  76 SW7       29.93S
LAWRENCE       MOSUNNY   81  72  74 SW6       29.90S

$$

MOZ001>008-011>017-020>025-030>033-038>040-044>046-053-054-241400-
...NORTHERN AND CENTRAL MISSOURI...

CITY           SKY/WX    TMP DP  RH WIND       PRES   REMARKS
ST. JOSEPH     MOSUNNY   80  73  79 SW5       29.90R
MOSBY          CLOUDY    79  73  83 CALM      29.90R
WHITEMAN AFB   PTSUNNY   83  76  81 SW12      29.92R HX  91
CLINTON        CLOUDY    81  75  83 CALM      29.95R
SEDALIA        CLOUDY    82  75  79 SW8       29.95R
WARSAW         NOT AVBL
CHILLICOTHE      N/A     84  76  76 VRB5      29.92R HX  93
KIRKSVILLE     MOSUNNY   83  75  77 SW10      29.92R HX  90

$$

MOZ041-047>049-056>058-063>065-088>090-097-241400-
...EASTERN AND SOUTHERN MISSOURI...

CITY           SKY/WX    TMP DP  RH WIND       PRES   REMARKS
ST. LOUIS INTL MOSUNNY   85  75  72 S6        29.95S HX  93
SPIRIT OF STL  SUNNY     83  77  82 CALM      29.93R HX  92
COLUMBIA       SUNNY     82  75  79 SW8       29.95R
JEFFERSON CITY SUNNY     81  73  76 VRB3      29.94R
ROLLA          SUNNY     80  72  76 SW8       29.96R
OSAGE BEACH    SUNNY     80  74  81 SW5       29.97R
SPRINGFIELD    SUNNY     81  72  74 S6        29.98R
BRANSON        MOSUNNY   79  72  78 CALM      30.01R
JOPLIN         CLOUDY    81  71  71 SW10      29.97R
WEST PLAINS    PTSUNNY   77  71  82 VRB3      30.02R

$$

IAZ060-094-KSZ022-034>040-054-083-096-NEZ052-066-093-241400-
...KANSAS...SOUTHEAST NEBRASKA AND IOWA...

CITY           SKY/WX    TMP DP  RH WIND       PRES   REMARKS
TOPEKA           N/A     84  70  62 W6        29.90R
MANHATTAN      PTSUNNY   79  69  71 NW7       29.93R
EMPORIA        PTSUNNY   83  71  67 S8        29.93F
CHANUTE        CLOUDY    79  72  79 S5        29.95R
WICHITA        CLOUDY    79  69  71 S7        29.93S
OMAHA          MOSUNNY   79  73  82 N6        29.90R
LINCOLN        SUNNY     79  70  74 N6        29.93R
FALLS CITY     CLOUDY    82  72  71 W8        29.90R
LAMONI         MOSUNNY   79  74  84 S10       29.90R
DES MOINES     MOSUNNY   81  75  82 SW8       29.86R

$$




USA.gov is the U.S. government's official web portal to all federal, state and local government web resources and services.